Location: Miss�
(46.9484°N, 0.1922°W)
Time: 03:45:40
(UTC+00:00)

ERBS - Pass Details

Date: 02 March 2021
Orbit: 407 x 412 km, 57.0° (Epoch: 17 April)

Event Time Altitude Azimuth Distance (km) Brightness Sun altitude
Rises 19:43:41 0° 268° (W) 2,353 7.5 -20.5°
Reaches altitude 10° 19:46:04 10° 284° (WNW) 1,491 6.2 -20.8°
Maximum altitude 19:48:47 23° 339° (NNW) 941 4.3 -21.3°
Enters shadow 19:49:41 20° 4° (N) 1,016 4.2 -21.4°
